User: anonymous   Login
Location: Caltech
(34.1382°N, 118.1253°W)
Time: 19:31:57
(UTC-07:00)
Language:

Courier 1B - Orbit

View from above orbital plane
View from above orbital plane
View from above satellite
View from above satellite

Ground track
Ground track

The orbit data is extracted from the following two-line orbital elements,

1    58U 60013A   17087.88549648 +.00000096 +00000-0 +21284-4 0  9994
2    58 028.3276 303.6059 0164917 048.4204 313.0351 13.46307426779947
Epoch (UTC): 28 March 2017 21:15:06
Eccentricity: 0.0164917
inclination: 28.3276°
perigee height: 963 km
apogee height: 1209 km
right ascension of ascending node: 303.6059°
argument of perigee: 48.4204°
revolutions per day: 13.46307426
mean anomaly at epoch: 313.0351°
orbit number at epoch: 77994

The dashed part of the orbit path shows where the satellite is in the earth's shadow,  

DLR